Regional Weather Roundup
Issued by NWS

Current Version | Previous Version | Text Only | Print | Product List | Glossary On
Versions: 1 2 3 4 5 6 7 8 9 10 11 12 13 14 15 16 17 18 19 20 21 22 23 24 25 26 27 28 29 30 31 32 33 34 35 36 37 38 39 40 41 42 43 44 45 46 47 48 49 50
000
ASUS42 KTBW 181717
RWRFL
FLORIDA REGIONAL WEATHER ROUNDUP
NATIONAL WEATHER SERVICE TAMPA BAY RUSKIN FL
100 PM EDT TUE SEP 18 2018

NOTE: "FAIR" INDICATES FEW OR NO CLOUDS BELOW 12,000 FEET WITH NO
SIGNIFICANT WEATHER AND/OR OBSTRUCTIONS TO VISIBILITY.

FLZ001>010-012>015-112-114-115-181800-
PANHANDLE FLORIDA

CITY           SKY/WX    TMP DP  RH WIND       PRES   REMARKS
PENSACOLA      PTSUNNY   89  77  67 SE9       29.96F HX 101
PENSACOLA NAS  PTSUNNY   90  80  72 S10       29.96  THUNDER HX 107
MILTON NAS     PTSUNNY   91  77  63 SW6       29.96  HX 104
CRESTVIEW      CLOUDY    91  75  59 N6        29.98F HX 101
DUKE FIELD     MOSUNNY   91  73  56 W6        29.96F HX  99
VALPARAISO     TSTM      81  76  84 SW10      29.97S
MARY ESTHER    PTSUNNY   85  73  65 CALM      29.96
PANAMA CITY    LGT RAIN  87  77  72 SW9       29.96F HX  99
TYNDALL AFB    FAIR      88  75  64 SW8       29.97F HX  98
APALACHICOLA   PTSUNNY   88  79  74 VRB5      29.98S HX 103

STATION/POSITION SKY/WX   TEMP    WIND        PRES    WAVE   SWELL
                          AIR SEA DIR/SP/G            HT/PER HT/PER
                          (F)     (DEG/KT/KT) (MB)    (FT/S) (FT/S)
30.1N   87.6W              85     280/  4/  6 1015.0
29.2N   88.2W                 87  250/  4/  4 1015.4F   1
28.8N   86.0W              85 87  210/  4/  6   N/A     1
PANAMA CITY BEAC           85 85  220/  6/  6 1015.5F
TOWER C                    85     230/  5/  6 1015.6F

$$
FLZ011-016>038-118-127-128-134-139-239-181800-
NORTH FLORIDA

CITY           SKY/WX    TMP DP  RH WIND       PRES   REMARKS
MARIANNA       FAIR      91  77  63 NW5       29.96F HX 104
TALLAHASSEE    FAIR      90  76  63 VRB3      29.97F HX 101
PERRY          FAIR      88  78  72 CALM      29.99F HX 101
LIVE OAK       MOSUNNY   88  77  70 CALM      29.98S HX 100
CROSS CITY     FAIR      83  75  76 CALM      29.99S
LAKE CITY      FAIR      88  73  62 SW8       29.99S HX  96
GAINESVILLE    FAIR      92  73  53 W5        30.00F HX 100
WILLISTON        N/A    N/A N/A N/A MISG        N/A
PALATKA        FAIR      91  75  59 W7        29.98F HX 102
MAYPORT NAS    FAIR      93  73  52 CALM      29.97F HX 102
JACKSONVILLE   FAIR      91  74  57 W6        29.96F HX 100
JAX NAS        FAIR      91  72  53 CALM      29.97F HX  98
JAX CECIL      PTSUNNY   95  75  52 W9        29.97F HX 107
ST AUGUSTINE   PTSUNNY   88  75  65 NW6       29.98F HX  97
PALM COAST     SUNNY     90  75  62 S6        29.98F HX 100

STATION/POSITION SKY/WX   TEMP    WIND        PRES    WAVE   SWELL
                          AIR SEA DIR/SP/G            HT/PER HT/PER
                          (F)     (DEG/KT/KT) (MB)    (FT/S) (FT/S)
SHELL POINT      NOT AVBL
KEATON BEACH               85     260/  5/  7 1015.7F
CEDAR KEY                  86     230/  4/  5 1015.7F
FERNANDINA                 94 87              1015.6F
30.7N   81.3W                 87                N/A     3/10   2/11
MAYPORT                    87 86  220/  5/  7 1015.4F
31.4N   80.9W              83 85  190/  8/ 10 1014.6F   3/11   3/11
ST AUGUSTINE               83 83   90/  8/  9 1015.7F

$$
FLZ040-043>046-052-053-057-058-063-144-181800-
INTERIOR CENTRAL FLORIDA

CITY           SKY/WX    TMP DP  RH WIND       PRES   REMARKS
OCALA          FAIR      90  74  59 W6        29.99F HX  99
LEESBURG       FAIR      90  75  61 SE7       29.99F HX 100
SANFORD        FAIR      92  74  55 S8        29.97F HX 101
ORLANDO EXEC   FAIR      91  72  53 VRB5      29.98F HX  98
ORLANDO INTL   FAIR      89  73  59 CALM      29.98F HX  97
KISSIMMEE      FAIR      90  74  59 VRB5      30.00F HX  99
WINTER HAVEN   FAIR      92  73  53 VRB6      30.00F HX 100
LAKELAND       PTSUNNY   88  73  62 S5        30.00  HX  96
SEBRING        FAIR      91  73  54 CALM      29.98F HX 100
OKEECHOBEE     FAIR      88  73  62 CALM      29.98F HX  96

$$
FLZ041-047-054-059-064-141-147-181800-
EAST CENTRAL FLORIDA

CITY           SKY/WX    TMP DP  RH WIND       PRES   REMARKS
ORMOND BEACH   MOSUNNY   90  75  62 SE7       29.98F HX 100
DAYTONA BEACH  PTSUNNY   89  76  65 W6        29.98F HX 100
DELAND         PTSUNNY   90  75  62 CALM      29.97F HX 100
NEW SMYRNA BEA MOSUNNY   91  73  55 CALM      29.99F HX 100
JFK SPACE CTR  FAIR      90  75  60 NW3       29.98F HX 100
TITUSVILLE     MOSUNNY   91  73  55 E9        29.99F HX 100
CAPE CANAVERAL FAIR      86  76  70 S9        29.98S HX  96
PATRICK AFB    FAIR      88  78  71 E10       29.99F HX 101
MELBOURNE      FAIR      90  77  65 E9        29.98F HX 103
VERO BEACH     FAIR      90  75  61 E12       29.99F HX 100
FT PIERCE      FAIR      88  77  69 E10       29.98F HX 100
STUART         MOSUNNY   90  73  58 E9        30.00F HX  98

STATION/POSITION SKY/WX   TEMP    WIND        PRES    WAVE   SWELL
                          AIR SEA DIR/SP/G            HT/PER HT/PER
                          (F)     (DEG/KT/KT) (MB)    (FT/S) (FT/S)
28.5N   80.2W              85     150/  2/  4 1016.0F   3/10   3/10
28.9N   78.5W              84 85  170/  6/  8 1016.5F   4/10   3/10
TRIDENT PIER               89 86  130/  6/ 10 1017.2F
28.4N   80.5W                 87                N/A     2/12   2/12
27.5N   80.2W                 85                N/A     3/11   2/11

$$
FLZ050-056-061-142-242-148-248-149-249-151-251-155-255-
160-260-181800-
WEST CENTRAL FLORIDA

CITY           SKY/WX    TMP DP  RH WIND       PRES   REMARKS
CRYSTAL RIVER  PTSUNNY   90  73  58 W3        29.98F HX  98
INVERNESS      PTSUNNY   91  77  62 SE3       29.98F HX 105
BROOKSVILLE    FAIR      89  75  63 VRB5      29.99F HX  99
CLEARWATER AIR CLOUDY    86  73  66 N3        29.98S
ST PETE CLEARW PTSUNNY   86  77  74 NE10      29.97F HX  97
TAMPA INTL     NOT AVBL
TAMPA EXEC     FAIR      91  75  59 S5        29.98F HX 102
PLANT CITY     FAIR      93  73  52 CALM      30.00F HX 102
MACDILL AFB    FAIR      88  75  64 S6        29.98F HX  98
PETER O KNIGHT PTSUNNY   88  75  66 SW5       29.98F HX  97
ST PETERSBURG  FAIR      88  76  67 S7        29.96F HX  99
SARASOTA       FAIR      89  74  60 SW8       29.97F HX  98
VENICE         FAIR      90  73  58 W8        29.99F HX  98

STATION/POSITION SKY/WX   TEMP    WIND        PRES    WAVE   SWELL
                          AIR SEA DIR/SP/G            HT/PER HT/PER
                          (F)     (DEG/KT/KT) (MB)    (FT/S) (FT/S)
CLEARWATER BEACH           86 89  280/  5/  7 1015.6F
MIDDLE TAMPA BAY           85     260/  2/  4 1015.6F
VENICE                     86 87  250/  7/  8   N/A

$$
FLZ066-069-070-075>078-162-262-165-265-181800-
SOUTHWEST FLORIDA AND KEYS

CITY           SKY/WX    TMP DP  RH WIND       PRES   REMARKS
PUNTA GORDA    FAIR      91  71  51 SE8       29.99F HX  97
FT MYERS       FAIR      90  70  51 E6        29.96F HX  95
SOUTHWEST INTL FAIR      91  73  55 CALM      29.97F HX  99
NAPLES         FAIR      92  71  50 SE6       29.97F HX  98
MARCO ISLAND   PTSUNNY   90  73  57 MISG      29.98F HX  98
IMMOKALEE        N/A     93  73  52 VRB5G12   29.97F HX 102
MARATHON       FAIR      92  77  61 SE9       29.96F HX 105
KEY WEST NAS   FAIR      91  75  59 E12       29.97F HX 101
KEY WEST INTL  FAIR      91  75  59 SE12      29.97F HX 101

STATION/POSITION SKY/WX   TEMP    WIND        PRES    WAVE   SWELL
                          AIR SEA DIR/SP/G            HT/PER HT/PER
                          (F)     (DEG/KT/KT) (MB)    (FT/S) (FT/S)
NAPLES                     89 88  270/  4/  5 1015.0F
26.0N   85.6W              84 86   60/ 10/ 14 1015.1
DRY TORTUGAS               84      70/ 11/ 13 1015.1F
SAND KEY                   84                 1014.8F
SOMBRERO KEY               84      70/  8/ 10 1014.2F
LONG KEY                   85 88   90/  9/ 10 1014.6F

$$
FLZ067-068-071>074-168-172>174-181800-
SOUTHEAST FLORIDA

CITY           SKY/WX    TMP DP  RH WIND       PRES   REMARKS
W PALM BEACH   FAIR      90  72  55 E10       29.99F HX  97
BOCA RATON     MOSUNNY   90  77  66 E12       29.98F HX 102
FT LAUDER-EXEC FAIR      89  74  60 E12       29.98F HX  98
FT LAUDERDALE  FAIR      88  79  74 E12       29.97F HX 103
POMPANO BEACH  PTSUNNY   90  75  61 E12       29.98F HX 100
PEMBROKE PINES PTSUNNY   90  76  63 E13       29.99F HX 101
OPA LOCKA      FAIR      89  75  63 E12       29.98F HX  99
MIAMI          PTSUNNY   89  76  65 E14G21    29.97F HX 100
WEST KENDALL   FAIR      90  74  59 E12       29.97F HX  99
HOMESTEAD      MOSUNNY   88  75  65 E9        29.96F HX  97

STATION/POSITION SKY/WX   TEMP    WIND        PRES    WAVE   SWELL
                          AIR SEA DIR/SP/G            HT/PER HT/PER
                          (F)     (DEG/KT/KT) (MB)    (FT/S) (FT/S)
VIRGINIA KEY               85 89   70/  8/ 11 1015.0F
LAKE WORTH                 84 86  120/  7/  8 1016.7F
FOWEY ROCKS                84 87   70/  8/  9 1015.7F
SETTLEMENT POINT           85     160/  7/  9 1015.9F

$$




USA.gov is the U.S. government's official web portal to all federal, state and local government web resources and services.